• In Deutschland
  • Länderverzeichnis
  • Für 7 Tage
  • Wassertemperatur
  • Satellitenkarten
  • Wetterkarte
  • Widgets
  • user-avatar
    Anmelden

    Stündliche Wetter Filderstadt

    Heute, 22 Juni, Freitag

    Zeit Temperatur Niederschläge Wind Luftdruck Luftfeuchtigkeit
    00:00 +10°C° 0 mm 2 m/S 733 mmHg 69%
    01:00 +9°C° 0 mm 2 m/S 733 mmHg 73%
    02:00 +8°C° 0 mm 2 m/S 733 mmHg 76%
    03:00 +9°C° 0 mm 1 m/S 734 mmHg 79%
    04:00 +8°C° 0 mm 1 m/S 734 mmHg 82%
    05:00 +8°C° 0 mm 2 m/S 734 mmHg 79%
    06:00 +9°C° 0 mm 2 m/S 734 mmHg 75%
    07:00 +10°C° 0 mm 2 m/S 734 mmHg 72%
    08:00 +11°C° 0 mm 3 m/S 734 mmHg 66%
    09:00 +13°C° 0 mm 3 m/S 734 mmHg 61%
    10:00 +14°C° 0 mm 4 m/S 734 mmHg 56%
    11:00 +14°C° 0 mm 4 m/S 734 mmHg 56%
    12:00 +15°C° 0 mm 4 m/S 734 mmHg 57%
    13:00 +15°C° 0 mm 5 m/S 734 mmHg 57%
    14:00 +15°C° 0,1 mm 5 m/S 734 mmHg 58%
    15:00 +15°C° 0,1 mm 4 m/S 734 mmHg 58%
    16:00 +15°C° 0,1 mm 4 m/S 734 mmHg 58%
    17:00 +15°C° 0 mm 4 m/S 734 mmHg 62%
    18:00 +14°C° 0 mm 3 m/S 734 mmHg 65%
    19:00 +15°C° 0 mm 2 m/S 734 mmHg 69%
    20:00 +13°C° 0 mm 2 m/S 734 mmHg 73%
    21:00 +12°C° 0 mm 1 m/S 734 mmHg 78%
    22:00 +10°C° 0 mm 1 m/S 734 mmHg 82%
    23:00 +9°C° 0 mm 1 m/S 734 mmHg 84%

    Morgen, 23 Juni, Samstag

    Zeit Temperatur Niederschläge Wind Luftdruck Luftfeuchtigkeit
    00:00 +9°C° 0 mm 1 m/S 735 mmHg 86%
    01:00 +9°C° 0 mm 1 m/S 735 mmHg 88%
    02:00 +8°C° 0 mm 1 m/S 735 mmHg 89%
    03:00 +8°C° 0 mm 1 m/S 734 mmHg 91%
    04:00 +7°C° 0 mm 1 m/S 734 mmHg 92%
    05:00 +9°C° 0 mm 1 m/S 735 mmHg 88%
    06:00 +10°C° 0 mm 1 m/S 735 mmHg 84%
    07:00 +12°C° 0 mm 1 m/S 735 mmHg 80%
    08:00 +13°C° 0 mm 2 m/S 735 mmHg 75%
    09:00 +14°C° 0 mm 2 m/S 735 mmHg 69%
    10:00 +15°C° 0 mm 2 m/S 735 mmHg 63%
    11:00 +16°C° 0 mm 2 m/S 734 mmHg 58%
    12:00 +17°C° 0 mm 2 m/S 734 mmHg 53%
    13:00 +19°C° 0 mm 3 m/S 734 mmHg 48%
    14:00 +19°C° 0 mm 3 m/S 734 mmHg 50%
    15:00 +19°C° 0 mm 3 m/S 733 mmHg 51%
    16:00 +19°C° 0 mm 3 m/S 733 mmHg 53%
    17:00 +18°C° 0 mm 3 m/S 733 mmHg 58%
    18:00 +17°C° 0 mm 3 m/S 733 mmHg 64%
    19:00 +16°C° 0 mm 2 m/S 733 mmHg 69%
    20:00 +15°C° 0 mm 2 m/S 733 mmHg 72%
    21:00 +14°C° 0 mm 1 m/S 733 mmHg 75%
    22:00 +12°C° 0 mm 1 m/S 733 mmHg 78%
    23:00 +12°C° 0,1 mm 1 m/S 733 mmHg 81%

    übermorgen, 24 Juni, Sonntag

    Zeit Temperatur Niederschläge Wind Luftdruck Luftfeuchtigkeit
    00:00 +11°C° 0,1 mm 0 m/S 733 mmHg 85%
    01:00 +10°C° 0,1 mm 0 m/S 733 mmHg 88%
    02:00 +10°C° 0 mm 0 m/S 733 mmHg 89%
    03:00 +9°C° 0 mm 0 m/S 732 mmHg 90%
    04:00 +9°C° 0 mm 0 m/S 732 mmHg 91%
    05:00 +10°C° 0 mm 0 m/S 732 mmHg 88%
    06:00 +11°C° 0 mm 0 m/S 732 mmHg 86%
    07:00 +12°C° 0 mm 0 m/S 732 mmHg 83%
    08:00 +15°C° 0,1 mm 1 m/S 732 mmHg 77%
    09:00 +16°C° 0,1 mm 1 m/S 732 mmHg 71%
    10:00 +17°C° 0,1 mm 2 m/S 732 mmHg 66%
    11:00 +18°C° 0,1 mm 2 m/S 732 mmHg 64%
    12:00 +18°C° 0,1 mm 2 m/S 732 mmHg 62%
    13:00 +19°C° 0,1 mm 2 m/S 732 mmHg 61%
    14:00 +19°C° 0,1 mm 2 m/S 732 mmHg 61%
    15:00 +19°C° 0,1 mm 2 m/S 731 mmHg 61%
    16:00 +20°C° 0,1 mm 3 m/S 731 mmHg 62%
    17:00 +19°C° 0,1 mm 2 m/S 731 mmHg 66%
    18:00 +18°C° 0,1 mm 2 m/S 731 mmHg 71%
    19:00 +17°C° 0,1 mm 2 m/S 731 mmHg 76%
    20:00 +16°C° 0 mm 2 m/S 731 mmHg 80%
    21:00 +14°C° 0 mm 2 m/S 732 mmHg 83%
    22:00 +13°C° 0 mm 1 m/S 732 mmHg 87%
    23:00 +12°C° 0 mm 1 m/S 732 mmHg 89%

    25 Juni, Montag

    Zeit Temperatur Niederschläge Wind Luftdruck Luftfeuchtigkeit
    00:00 +12°C° 0 mm 1 m/S 732 mmHg 91%
    01:00 +11°C° 0 mm 1 m/S 732 mmHg 93%
    02:00 +11°C° 0 mm 1 m/S 732 mmHg 94%
    03:00 +10°C° 0 mm 1 m/S 732 mmHg 94%
    04:00 +10°C° 0 mm 1 m/S 732 mmHg 95%
    05:00 +11°C° 0 mm 1 m/S 732 mmHg 92%
    06:00 +12°C° 0 mm 1 m/S 732 mmHg 89%
    07:00 +14°C° 0 mm 1 m/S 732 mmHg 86%
    08:00 +15°C° 0 mm 2 m/S 732 mmHg 80%
    09:00 +16°C° 0 mm 2 m/S 732 mmHg 74%
    10:00 +18°C° 0 mm 2 m/S 732 mmHg 68%
    11:00 +18°C° 0,1 mm 3 m/S 732 mmHg 65%
    12:00 +19°C° 0,1 mm 3 m/S 732 mmHg 62%
    13:00 +20°C° 0,1 mm 3 m/S 732 mmHg 59%
    14:00 +20°C° 0,1 mm 3 m/S 732 mmHg 59%
    15:00 +20°C° 0,1 mm 3 m/S 732 mmHg 59%
    16:00 +20°C° 0,1 mm 3 m/S 732 mmHg 59%
    17:00 +20°C° 0 mm 3 m/S 732 mmHg 64%
    18:00 +19°C° 0 mm 3 m/S 732 mmHg 69%
    19:00 +18°C° 0 mm 2 m/S 732 mmHg 74%
    20:00 +17°C° 0 mm 2 m/S 732 mmHg 79%
    21:00 +15°C° 0 mm 2 m/S 732 mmHg 85%
    22:00 +13°C° 0 mm 1 m/S 732 mmHg 90%
    23:00 +13°C° 0 mm 1 m/S 732 mmHg 91%

    26 Juni, Dienstag

    Zeit Temperatur Niederschläge Wind Luftdruck Luftfeuchtigkeit
    00:00 +12°C° 0 mm 1 m/S 732 mmHg 92%
    01:00 +12°C° 0 mm 1 m/S 732 mmHg 93%
    02:00 +12°C° 0 mm 1 m/S 732 mmHg 93%
    03:00 +11°C° 0 mm 1 m/S 732 mmHg 93%
    04:00 +11°C° 0 mm 1 m/S 731 mmHg 94%
    05:00 +12°C° 0 mm 1 m/S 732 mmHg 90%
    06:00 +14°C° 0 mm 1 m/S 732 mmHg 86%
    07:00 +15°C° 0 mm 2 m/S 732 mmHg 82%
    08:00 +17°C° 0 mm 2 m/S 732 mmHg 75%
    09:00 +19°C° 0 mm 3 m/S 732 mmHg 68%
    10:00 +20°C° 0 mm 4 m/S 732 mmHg 61%
    11:00 +21°C° 0 mm 4 m/S 732 mmHg 58%
    12:00 +22°C° 0 mm 4 m/S 731 mmHg 55%
    13:00 +23°C° 0 mm 4 m/S 731 mmHg 52%
    14:00 +23°C° 0 mm 4 m/S 731 mmHg 52%
    15:00 +25°C° 0 mm 4 m/S 731 mmHg 52%
    16:00 +25°C° 0 mm 4 m/S 731 mmHg 53%
    17:00 +23°C° 0 mm 4 m/S 731 mmHg 58%
    18:00 +22°C° 0 mm 3 m/S 731 mmHg 63%
    19:00 +21°C° 0 mm 3 m/S 731 mmHg 68%
    20:00 +19°C° 0 mm 3 m/S 731 mmHg 73%
    21:00 +17°C° 0 mm 2 m/S 731 mmHg 77%
    22:00 +16°C° 0 mm 2 m/S 731 mmHg 81%
    23:00 +15°C° 0 mm 2 m/S 731 mmHg 81%

    27 Juni, Mittwoch

    Zeit Temperatur Niederschläge Wind Luftdruck Luftfeuchtigkeit
    00:00 +14°C° 0 mm 2 m/S 731 mmHg 82%
    01:00 +14°C° 0 mm 2 m/S 731 mmHg 82%
    02:00 +13°C° 0 mm 2 m/S 731 mmHg 84%
    03:00 +13°C° 0 mm 2 m/S 731 mmHg 86%
    04:00 +12°C° 0 mm 2 m/S 731 mmHg 88%
    05:00 +14°C° 0 mm 2 m/S 731 mmHg 84%
    06:00 +15°C° 0 mm 2 m/S 731 mmHg 80%
    07:00 +16°C° 0 mm 2 m/S 732 mmHg 75%
    08:00 +18°C° 0 mm 3 m/S 732 mmHg 69%
    09:00 +20°C° 0 mm 4 m/S 732 mmHg 62%
    10:00 +22°C° 0 mm 4 m/S 732 mmHg 56%
    11:00 +23°C° 0 mm 4 m/S 732 mmHg 54%
    12:00 +23°C° 0 mm 4 m/S 732 mmHg 52%
    13:00 +25°C° 0 mm 4 m/S 732 mmHg 51%
    14:00 +25°C° 0 mm 4 m/S 731 mmHg 52%
    15:00 +26°C° 0 mm 5 m/S 731 mmHg 53%
    16:00 +26°C° 0 mm 5 m/S 731 mmHg 54%
    17:00 +25°C° 0 mm 4 m/S 731 mmHg 59%
    18:00 +24°C° 0 mm 3 m/S 731 mmHg 64%
    19:00 +22°C° 0 mm 3 m/S 731 mmHg 69%
    20:00 +21°C° 0 mm 2 m/S 731 mmHg 73%
    21:00 +19°C° 0 mm 2 m/S 731 mmHg 77%
    22:00 +17°C° 0 mm 2 m/S 732 mmHg 81%
    23:00 +17°C° 0 mm 2 m/S 731 mmHg 83%
    Mehr zeigen